Probability
9 9 11 12 13 11 10 10 12 13 11 9 7 7 8 9 9 7 4 3 4 5 5 5 5 6 7 6 5 6 6 5 2 0 0 1 2 2 2 2 3 4 6
9 10 12 14 15 14 12 12 12 12 10 8 7 6 6 6 5 4 3 3 3 4 4 4 4 5 5 5 5 5 6 5 3 1 1 2 3 3 3 2 2 3 4
11 12 15 17 17 16 15 14 13 12 9 7 6 5 4 3 2 2 3 3 3 3 3 3 3 3 3 3 4 5 6 5 4 3 3 3 3 3 3 3 2 2 2
17 18 20 20 19 17 16 15 14 13 10 8 6 5 4 3 3 3 3 3 3 3 2 2 2 1 1 2 3 6 6 5 5 4 4 5 4 3 3 3 3 2 2
23 23 23 23 20 17 16 16 15 13 11 9 8 6 6 5 4 3 3 4 4 3 2 2 1 1 1 1 3 5 6 5 6 6 6 6 5 4 3 3 3 3 2
28 27 25 23 20 18 16 15 14 13 13 11 9 8 6 5 4 3 4 5 5 5 4 3 3 2 2 2 3 3 4 4 5 6 6 6 5 5 4 3 3 2 2
31 29 26 22 19 17 16 14 13 13 14 14 11 9 8 6 4 3 4 6 6 6 6 5 4 4 3 3 3 2 3 3 4 5 5 4 4 4 3 3 3 2 1
35 33 29 25 21 18 15 14 14 15 15 14 13 12 10 7 5 4 4 5 6 6 6 6 5 4 4 3 3 3 3 3 3 4 4 3 3 3 3 3 3 3 2
39 36 32 29 25 20 15 14 14 14 14 14 14 14 11 8 6 3 3 5 6 6 6 6 5 4 3 3 3 3 3 3 3 3 3 3 3 3 3 3 3 3 3
39 36 33 30 28 23 17 14 13 12 11 12 13 14 11 9 6 3 3 5 6 6 6 6 4 3 3 3 3 3 3 3 3 3 3 3 3 3 2 3 3 3 3
39 37 34 31 28 24 21 18 15 12 11 12 14 13 11 9 6 3 3 5 6 6 6 5 4 3 3 3 3 3 3 3 3 3 3 3 3 3 3 3 3 3 3
39 38 36 32 26 23 23 21 18 14 12 12 14 12 10 8 5 3 2 3 5 6 6 4 3 3 3 3 3 3 3 3 3 3 4 3 3 3 3 3 3 3 3
36 36 34 29 24 22 22 22 20 17 13 12 12 11 9 8 6 3 2 2 3 5 5 4 3 3 3 3 2 3 3 3 4 4 5 4 3 3 3 3 3 3 3
31 32 29 24 20 20 21 21 20 18 15 12 11 11 10 9 8 5 3 3 3 4 4 3 3 3 3 3 3 4 4 4 5 5 6 5 4 3 3 3 1 1 2
26 27 25 21 18 18 19 19 18 16 13 11 11 10 10 9 7 5 3 3 2 2 2 3 3 3 3 4 5 5 6 5 5 5 5 5 4 3 3 2 1 0 1
25 24 23 20 18 17 18 17 14 11 7 6 6 6 7 6 4 2 1 1 1 1 1 1 3 3 3 3 4 5 6 6 5 4 4 5 4 3 3 1 0 0 0
27 24 21 18 16 15 16 17 13 8 4 3 2 2 3 3 1 0 0 0 0 1 1 1 3 3 3 3 3 4 5 6 4 3 4 5 5 4 2 1 0 0 0
29 23 18 16 13 12 14 16 14 10 8 6 2 0 0 0 0 0 0 0 1 2 2 3 3 3 3 3 3 3 4 5 4 3 3 4 4 3 2 1 0 0 0
26 21 16 14 13 12 12 13 14 13 12 10 5 1 0 0 0 0 0 1 2 3 3 3 3 3 3 3 3 3 3 4 3 3 3 3 2 2 2 1 0 0 0
20 16 13 14 14 12 11 12 13 14 13 11 6 2 0 1 1 0 0 2 3 3 3 3 3 3 4 3 3 3 3 3 3 3 2 1 1 1 1 0 0 0 0
17 13 10 12 14 12 11 12 14 14 12 9 6 3 1 1 1 0 0 1 2 1 1 3 3 4 4 4 3 3 3 3 3 2 1 0 0 0 0 0 0 0 0
17 13 11 12 13 11 9 11 13 11 9 8 8 4 1 1 1 1 1 2 2 1 1 3 3 3 4 3 3 3 3 3 3 2 1 0 0 0 0 0 0 0 0
17 14 13 13 13 9 9 10 11 10 9 9 9 5 2 2 3 3 3 3 3 2 3 3 3 3 3 3 3 3 3 3 3 3 2 0 0 0 0 0 0 0 0
17 14 13 13 12 9 9 10 10 9 9 9 9 7 5 5 5 5 4 4 4 4 4 3 3 3 3 2 2 2 2 2 2 2 1 0 0 0 0 0 0 0 0
16 13 12 12 11 10 9 9 9 9 9 10 9 8 7 6 6 6 5 5 4 4 5 4 3 3 1 1 1 1 1 1 1 1 0 0 0 0 0 0 0 0 0
14 12 12 11 11 9 8 8 8 8 9 10 10 9 8 7 6 6 5 4 3 3 5 4 3 2 1 0 0 0 0 0 0 0 0 0 0 0 0 0 0 0 0
Wind_Speed
8 7 6 6 5 4 3 2 2 1 1 1 1 2 2 3 3 3 3 3 3 3 3 3 3 2 1 1 1 1 1 2 4 4 3 4 4 4 4 4 5 5 9
8 8 7 6 5 5 4 3 3 2 2 2 2 2 2 3 3 3 3 4 4 4 4 3 3 2 2 2 1 2 3 3 4 5 4 3 4 4 4 3 4 5 7
9 9 8 7 6 5 5 4 4 3 3 3 3 2 2 3 3 3 3 4 4 4 4 4 3 3 2 2 2 2 3 4 4 5 4 3 3 3 3 4 5 3 5
9 9 8 7 7 6 5 5 4 4 3 3 3 3 2 3 3 3 3 4 4 4 4 4 4 3 3 2 2 3 3 4 5 4 5 4 4 3 2 3 4 3 3
9 9 8 8 7 7 6 5 4 4 4 4 3 3 2 2 3 3 2 3 3 4 4 4 5 6 7 5 3 3 3 2 3 4 4 4 3 3 2 2 3 3 4
10 9 8 8 8 7 6 6 5 4 4 4 3 3 2 4 6 5 3 3 3 4 4 3 4 5 6 6 7 7 5 2 2 2 3 4 3 3 2 2 2 2 3
9 9 9 9 8 7 7 6 6 5 5 4 3 3 4 5 4 4 3 2 4 4 4 3 3 5 3 4 6 6 6 6 3 1 3 2 3 3 2 3 2 1 2
10 10 9 9 8 8 7 6 6 5 4 4 3 4 4 4 3 2 1 3 4 4 4 4 4 4 4 2 4 5 6 5 3 2 3 2 3 2 1 2 3 3 3
10 10 9 9 9 8 8 7 6 5 4 4 4 4 4 4 3 1 3 3 4 4 4 4 3 4 4 3 4 5 5 5 6 6 4 4 4 2 0 1 2 3 3
9 9 9 8 8 8 8 7 6 5 5 4 4 3 4 4 3 1 4 2 3 3 4 4 5 4 3 3 3 4 4 3 4 5 5 5 5 5 3 1 1 1 1
8 8 8 8 8 8 7 6 6 5 5 4 4 4 3 3 5 2 2 1 1 2 3 3 4 4 2 1 1 2 2 1 2 3 4 4 4 3 2 1 0 2 1
9 9 8 8 7 7 7 6 6 6 6 5 5 4 4 4 3 4 2 1 3 1 1 2 4 4 3 1 1 2 2 3 2 2 2 3 2 2 2 1 1 1 1
9 9 8 8 7 7 8 8 7 6 5 5 5 5 4 4 5 5 4 2 0 0 2 5 4 3 3 3 3 3 4 3 2 2 2 2 2 2 1 2 3 2 2
9 8 8 7 7 7 6 6 6 6 5 5 5 4 4 4 4 5 5 5 6 5 4 5 5 3 3 2 4 4 4 2 1 2 2 2 2 2 2 1 1 2 2
8 7 7 7 6 6 5 3 4 3 2 3 4 4 4 4 3 2 2 3 3 2 3 4 4 4 4 4 4 3 3 3 3 2 2 2 2 2 2 2 1 2 2
7 7 6 6 6 6 5 4 3 1 3 2 1 1 1 3 6 5 3 2 2 3 4 4 4 4 4 3 3 4 4 3 3 3 3 3 3 3 2 2 2 2 2
7 6 5 5 6 6 6 6 5 3 3 2 3 3 3 5 6 6 5 4 4 5 5 4 4 3 3 3 3 3 3 3 2 3 2 2 2 3 3 3 3 3 3
6 6 5 5 6 6 6 6 6 6 6 5 4 6 7 8 8 8 7 6 6 6 6 5 4 4 4 4 3 3 3 3 3 3 3 3 3 3 3 3 3 3 3
5 5 4 4 5 5 5 5 5 5 5 4 5 5 7 8 8 8 9 7 6 6 5 5 4 4 4 3 3 3 3 3 3 3 3 3 3 3 3 4 3 3 4
4 4 4 5 5 5 5 5 5 5 5 4 5 5 6 6 6 6 7 7 6 5 5 5 4 4 4 3 3 4 4 3 4 4 3 4 4 4 4 4 4 3 3
5 5 6 5 5 5 5 4 4 5 5 5 4 4 5 6 6 7 6 6 6 5 5 4 4 4 4 4 4 5 5 4 4 4 4 4 4 4 3 3 3 3 3
5 5 6 5 5 4 4 4 4 4 5 5 4 5 7 6 6 5 5 5 5 4 4 4 5 4 4 4 4 4 5 4 4 4 4 3 3 4 4 4 4 4 4
4 5 5 5 5 5 5 5 5 5 5 5 4 4 6 6 5 5 5 4 4 4 5 5 5 5 4 4 4 4 4 4 3 3 3 4 4 4 4 4 4 4 4
4 5 5 5 5 5 5 5 5 5 5 4 4 4 4 5 5 5 5 4 4 5 5 5 5 5 6 5 4 4 3 3 4 4 5 4 4 4 4 4 4 5 5
4 5 5 5 5 4 4 4 4 4 4 4 4 4 4 4 4 4 4 4 5 5 5 5 5 6 7 7 5 3 3 2 2 3 4 4 4 4 4 5 4 5 4
4 4 4 4 4 4 4 4 4 4 4 4 4 4 4 4 4 4 4 4 5 5 5 5 5 6 6 6 5 4 4 4 3 2 4 4 4 4 4 4 5 5 4
Wind_Direction
173 171 170 168 168 168 163 155 142 108 83 47 35 40 42 34 30 32 39 42 43 46 40 52 49 33 35 69 88 101 102 117 126 114 104 99 97 87 86 89 97 96 90
168 166 166 163 161 161 150 142 134 121 108 89 74 61 55 51 43 46 42 43 42 42 42 47 44 61 65 51 73 96 97 105 129 127 120 111 98 93 92 88 89 90 97
164 163 159 160 157 155 145 140 134 128 116 103 92 78 61 58 57 58 56 51 47 45 41 42 42 52 58 69 69 87 102 109 119 130 126 112 108 106 111 106 100 95 104
162 161 159 161 157 151 147 144 140 135 127 115 105 94 83 72 68 64 66 61 55 51 43 42 42 48 58 82 97 100 106 119 130 133 129 128 123 126 136 129 121 110 90
161 161 158 156 153 151 150 146 142 140 132 120 116 111 107 99 62 50 73 76 65 61 57 56 58 53 42 36 50 83 112 127 135 134 131 128 122 134 137 142 121 124 118
159 156 153 155 156 155 150 145 141 136 129 128 124 114 92 67 55 26 6 77 68 65 63 70 95 89 83 73 62 61 58 91 114 132 128 133 139 140 145 158 135 137 127
157 156 157 158 155 153 149 144 144 143 141 138 133 120 101 85 73 55 22 75 79 67 61 51 60 82 98 108 117 120 90 73 69 109 121 128 139 138 169 167 142 123 87
161 160 160 160 155 151 149 146 146 145 145 142 136 128 119 104 96 88 326 117 91 82 74 70 70 71 56 62 106 102 98 88 76 93 101 110 110 126 184 163 145 146 146
165 164 164 163 156 154 153 151 151 150 149 152 143 140 134 124 114 132 280 133 116 101 87 72 71 85 41 6 114 113 109 113 103 89 79 94 96 101 318 180 160 174 149
168 167 164 162 160 157 154 155 154 155 157 159 144 149 146 133 126 175 281 175 134 131 119 108 75 69 59 11 120 119 114 104 108 124 132 148 148 142 171 221 222 213 171
164 163 160 159 158 154 151 153 155 160 156 154 148 154 155 140 145 157 297 273 155 152 134 124 99 98 96 34 329 107 109 144 146 147 145 145 146 148 162 151 321 289 284
160 159 155 157 160 152 152 155 157 159 162 165 166 171 162 160 154 155 173 316 331 136 124 110 103 113 119 130 146 108 176 235 190 152 144 145 156 158 152 159 124 325 328
156 156 154 156 159 158 163 162 167 176 184 179 180 180 171 160 147 150 161 163 311 221 88 78 102 152 176 167 159 187 212 211 184 174 161 157 146 122 161 167 166 174 177
156 157 158 162 167 168 179 179 183 184 188 188 190 189 177 173 170 166 167 166 169 176 161 143 163 192 215 150 167 192 211 206 216 195 176 161 154 159 183 172 174 187 187
160 163 166 169 170 173 179 179 194 183 191 202 201 198 192 187 155 140 188 185 192 160 170 185 188 186 190 188 191 196 200 187 203 207 190 182 182 184 180 168 197 227 229
168 173 175 175 171 176 170 163 76 95 116 120 15 275 151 116 138 150 159 147 145 172 210 204 203 205 206 203 202 194 198 203 211 215 208 207 204 201 197 195 211 234 238
177 177 181 179 178 185 184 181 173 151 136 160 183 188 177 155 160 169 174 174 185 192 215 214 213 214 219 220 219 216 207 188 215 226 225 219 218 213 209 213 222 231 240
179 175 188 186 188 189 191 190 187 186 184 184 183 184 179 176 177 178 173 178 192 205 221 223 217 215 224 231 225 219 209 195 203 221 222 224 229 228 224 226 228 238 249
186 181 187 188 192 191 192 193 191 197 195 183 173 168 177 176 180 186 184 210 214 209 216 222 224 225 223 222 223 222 222 217 215 226 223 226 232 235 237 238 232 207 254
178 167 185 189 188 189 193 197 194 194 194 192 193 180 169 185 196 189 204 220 224 219 220 222 222 227 227 225 219 221 222 216 210 223 225 224 229 235 235 242 251 242 243
170 163 185 195 192 192 195 199 198 196 195 196 200 183 183 203 209 206 208 216 227 228 224 226 223 219 218 221 223 222 224 219 214 223 225 225 232 235 244 247 246 256 263
174 171 188 197 192 193 196 199 200 201 202 203 194 175 185 215 217 216 214 215 218 224 228 230 228 221 222 223 221 221 219 221 219 218 223 231 235 240 243 245 247 255 261
180 177 187 194 193 183 198 202 200 201 203 205 201 187 188 213 218 217 215 217 218 224 225 225 229 225 216 217 218 217 222 225 224 225 235 239 244 241 240 248 254 260 265
186 185 189 188 188 191 198 199 201 204 206 205 202 203 204 208 218 219 217 213 216 220 220 221 221 221 220 218 213 210 207 228 237 224 229 246 254 256 252 252 256 264 267
191 188 186 184 183 189 194 198 202 206 206 204 202 204 206 207 211 215 216 211 214 216 214 215 215 217 217 213 214 207 161 175 226 262 229 236 252 262 265 263 265 266 266
194 186 186 184 183 190 197 200 201 205 209 208 206 202 201 206 209 211 212 212 211 207 210 210 210 208 208 210 202 178 148 158 179 246 259 242 244 249 257 264 268 269 268